Zurück zum Katalog

TIANYAN 23

AktivWissenschaftSSO
NORAD 63209·PAYLOAD·🇨🇳 China

Gestartet Mar 15, 2025 von Jiuquan Satellite Launch Center

Loading…

Nächste Überflüge (nächste 24 Stunden)

TLE

AktuellSource: Space-Track

Epoche: Sep 14, 2026, 13:47 UTC

1 63209U 25051B   26257.57442910  .00033448  00000-0  50940-3 0  9990
2 63209  97.4491 347.9964 0005716 123.2952 236.8850 15.54421192 84223

Verfolge TIANYAN 23 in Echtzeit mit AllMySat

Download on the App Store